Date String (YYYY-MM-DD hh:mm:ss) UTC,Instrument flags,Ambient pressure (hPa),Sample flow (lpm),Bypass flow (lpm),Sample temperature (°C),Ambient temperature (°C),ASC tube jacket temperature (°C),LED temperature (°C),Box temperature (°C),Sample RH (%),Span deviation,Mass concentration (μg/m³),Mass concentration (μg/m³),Mass concentration (μg/m³)
DateTimeUTC,F1_M11,P_M11,Q1_M11,Q2_M11,T1_M11,T2_M11,T3_M11,T4_M11,T5_M11,U1_M11,ZSPAN_M11,X0_M11,X2_M11,X1_M11
2021-12-04 07:00:00,,0828.9,5.00,0.00,25.6,24.7,00.0,34.8,27.3,14.7,0000.0,0009.55,0003.72,0002.40
2021-12-04 07:01:00,,0828.9,5.01,0.00,25.6,24.7,00.0,34.7,27.3,14.7,0000.0,0009.30,0003.76,0002.45
2021-12-04 07:02:00,,0829.0,4.99,0.00,25.6,24.7,00.0,34.7,27.3,14.8,0000.0,0010.12,0003.84,0002.48
2021-12-04 07:03:00,,0829.2,5.01,0.00,25.6,24.7,00.0,34.7,27.3,14.8,0000.0,0010.65,0003.87,0002.49
2021-12-04 07:04:00,,0829.3,5.00,0.00,25.6,24.7,00.0,34.7,27.3,14.8,0000.0,0010.56,0003.89,0002.48
2021-12-04 07:05:00,,0829.3,4.99,0.00,25.6,24.7,00.0,34.7,27.3,14.8,0000.0,0010.60,0003.89,0002.47
2021-12-04 07:06:00,,0828.7,5.01,0.00,25.6,24.7,00.0,34.7,27.3,14.8,0000.0,0011.19,0003.90,0002.47
2021-12-04 07:07:00,,0828.7,4.98,0.00,25.6,24.6,00.0,34.7,27.3,14.8,0000.0,0011.54,0003.91,0002.48
2021-12-04 07:08:00,,0828.7,5.00,0.00,25.5,24.7,00.0,34.7,27.2,14.9,0000.0,0011.87,0003.95,0002.50
2021-12-04 07:09:00,,0828.7,5.01,0.00,25.5,24.7,00.0,34.7,27.2,14.8,0000.0,0012.38,0003.96,0002.50
2021-12-04 07:10:00,,0828.7,4.99,0.00,25.5,24.7,00.0,34.7,27.2,14.7,0000.0,0012.19,0003.91,0002.50
2021-12-04 07:11:00,,0828.9,5.01,0.00,25.5,24.7,00.0,34.6,27.2,14.5,0000.0,0012.66,0003.90,0002.52
2021-12-04 07:12:00,,0829.1,5.00,0.00,25.5,24.6,00.0,34.6,27.2,14.4,0000.0,0012.63,0003.89,0002.54
2021-12-04 07:13:00,,0828.7,5.00,0.00,25.5,24.6,00.0,34.6,27.2,14.2,0000.0,0012.12,0003.84,0002.56
2021-12-04 07:14:00,,0828.8,5.00,0.00,25.5,24.6,00.0,34.6,27.2,14.0,0000.0,0012.65,0003.79,0002.58
2021-12-04 07:15:00,,0828.7,5.01,0.00,25.5,24.6,00.0,34.6,27.2,14.0,0000.0,0013.05,0003.78,0002.58
2021-12-04 07:16:00,,0828.9,4.99,0.00,25.5,24.6,00.0,34.6,27.2,14.1,0000.0,0013.30,0003.75,0002.57
2021-12-04 07:17:00,,0828.8,5.00,0.00,25.4,24.6,00.0,34.6,27.2,14.0,0000.0,0013.57,0003.75,0002.59
2021-12-04 07:18:00,,0828.9,5.00,0.00,25.4,24.6,00.0,34.6,27.1,13.8,0000.0,0013.21,0003.71,0002.60
2021-12-04 07:19:00,,0829.1,5.01,0.00,25.4,24.6,00.0,34.6,27.1,13.7,0000.0,0012.86,0003.67,0002.60
2021-12-04 07:20:00,,0829.0,4.99,0.00,25.4,24.6,00.0,34.5,27.1,13.6,0000.0,0012.43,0003.63,0002.61
2021-12-04 07:21:00,,0828.8,5.02,0.00,25.4,24.6,00.0,34.5,27.1,13.7,0000.0,0012.27,0003.62,0002.62
2021-12-04 07:22:00,,0828.7,5.00,0.00,25.4,24.5,00.0,34.5,27.1,13.6,0000.0,0011.41,0003.58,0002.61
2021-12-04 07:23:00,,0828.5,4.99,0.00,25.4,24.5,00.0,34.5,27.1,13.6,0000.0,0011.30,0003.56,0002.60
2021-12-04 07:24:00,,0828.4,5.00,0.00,25.4,24.5,00.0,34.5,27.1,13.6,0000.0,0011.23,0003.57,0002.60
2021-12-04 07:25:00,,0828.4,4.99,0.00,25.3,24.5,00.0,34.5,27.0,13.6,0000.0,0009.59,0003.55,0002.56
2021-12-04 07:26:00,,0828.5,5.00,0.00,25.3,24.5,00.0,34.5,27.0,13.7,0000.0,0009.49,0003.54,0002.55
2021-12-04 07:27:00,,0828.5,5.00,0.00,25.3,24.5,00.0,34.5,27.1,13.6,0000.0,0009.32,0003.56,0002.55
2021-12-04 07:28:00,,0828.5,4.99,0.00,25.3,24.5,00.0,34.5,27.0,13.4,0000.0,0008.98,0003.56,0002.54
2021-12-04 07:29:00,,0828.4,5.00,0.00,25.3,24.5,00.0,34.4,27.0,13.4,0000.0,0010.63,0003.60,0002.52
2021-12-04 07:30:00,,0828.4,5.01,0.00,25.3,24.4,00.0,34.4,27.0,13.4,0000.0,0011.08,0003.56,0002.49
2021-12-04 07:31:00,,0828.4,5.01,0.00,25.3,24.4,00.0,34.4,27.0,13.4,0000.0,0010.87,0003.52,0002.46
2021-12-04 07:32:00,,0828.3,4.99,0.00,25.3,24.4,00.0,34.4,27.0,13.4,0000.0,0010.87,0003.52,0002.45
2021-12-04 07:33:00,,0828.3,5.00,0.00,25.3,24.4,00.0,34.4,27.0,13.7,0000.0,0011.63,0003.55,0002.45
2021-12-04 07:34:00,,0828.3,5.00,0.00,25.3,24.4,00.0,34.4,27.0,14.3,0000.0,0012.45,0003.55,0002.42
2021-12-04 07:35:00,,0828.3,5.00,0.00,25.3,24.4,00.0,34.4,27.0,14.4,0000.0,0012.64,0003.53,0002.39
2021-12-04 07:36:00,,0828.2,5.00,0.00,25.3,24.4,00.0,34.4,27.0,13.8,0000.0,0012.81,0003.52,0002.36
2021-12-04 07:37:00,,0828.2,5.00,0.00,25.2,24.4,00.0,34.4,26.9,13.5,0000.0,0013.75,0003.48,0002.36
2021-12-04 07:38:00,,0828.2,5.02,0.00,25.2,24.4,00.0,34.4,27.0,14.0,0000.0,0015.03,0003.46,0002.35
2021-12-04 07:39:00,,0828.4,4.99,0.00,25.2,24.4,00.0,34.3,27.0,14.2,0000.0,0015.26,0003.46,0002.33
2021-12-04 07:40:00,,0828.2,5.01,0.00,25.2,24.4,00.0,34.3,26.9,14.0,0000.0,0013.88,0003.44,0002.33
2021-12-04 07:41:00,,0828.2,4.99,0.00,25.2,24.3,00.0,34.3,26.9,14.0,0000.0,0014.20,0003.47,0002.34
2021-12-04 07:42:00,,0828.2,5.00,0.00,25.2,24.4,00.0,34.3,26.9,14.4,0000.0,0014.73,0003.52,0002.33
2021-12-04 07:43:00,,0828.3,5.02,0.00,25.2,24.3,00.0,34.3,26.9,14.5,0000.0,0015.43,0003.53,0002.32
2021-12-04 07:44:00,,0828.2,5.00,0.00,25.2,24.3,00.0,34.3,26.8,14.4,0000.0,0015.74,0003.53,0002.30
2021-12-04 07:45:00,,0828.2,4.99,0.00,25.2,24.3,00.0,34.3,26.8,14.6,0000.0,0014.93,0003.52,0002.29
2021-12-04 07:46:00,,0828.2,5.01,0.00,25.1,24.3,00.0,34.3,26.8,14.9,0000.0,0015.04,0003.49,0002.28
2021-12-04 07:47:00,,0828.2,4.99,0.00,25.1,24.3,00.0,34.3,26.8,15.0,0000.0,0015.09,0003.44,0002.26
2021-12-04 07:48:00,,0828.1,5.01,0.00,25.1,24.3,00.0,34.2,26.8,15.1,0000.0,0014.43,0003.44,0002.23
2021-12-04 07:49:00,,0828.1,5.00,0.00,25.1,24.3,00.0,34.2,26.8,15.1,0000.0,0012.91,0003.42,0002.20
2021-12-04 07:50:00,,0828.1,5.01,0.00,25.1,24.3,00.0,34.2,26.8,15.1,0000.0,0013.00,0003.39,0002.16
2021-12-04 07:51:00,,0828.1,4.98,0.00,25.1,24.3,00.0,34.2,26.8,15.1,0000.0,0012.72,0003.37,0002.11
2021-12-04 07:52:00,,0828.1,5.01,0.00,25.1,24.3,00.0,34.2,26.9,15.1,0000.0,0012.12,0003.38,0002.09
2021-12-04 07:53:00,,0828.1,5.00,0.00,25.1,24.3,00.0,34.2,26.9,15.1,0000.0,0012.37,0003.40,0002.07
2021-12-04 07:54:00,,0828.1,5.00,0.00,25.1,24.3,00.0,34.2,26.9,15.1,0000.0,0011.62,0003.39,0002.03
2021-12-04 07:55:00,,0828.1,4.99,0.00,25.1,24.3,00.0,34.2,26.8,15.1,0000.0,0010.50,0003.34,0001.99
2021-12-04 07:56:00,,0828.1,5.01,0.00,25.1,24.3,00.0,34.2,26.8,15.1,0000.0,0010.57,0003.32,0001.96
2021-12-04 07:57:00,,0828.1,4.99,0.00,25.1,24.3,00.0,34.2,26.8,15.0,0000.0,0010.31,0003.31,0001.93
2021-12-04 07:58:00,,0828.2,5.01,0.00,25.1,24.3,00.0,34.2,26.8,15.0,0000.0,0010.12,0003.33,0001.91
2021-12-04 07:59:00,,0828.1,4.99,0.00,25.1,24.2,00.0,34.2,26.8,15.0,0000.0,0010.21,0003.33,0001.89
